When you browse on this site, cookies collect data to enhance your experience and personalize the content and advertising you see.
Visit our Privacy Policy to learn more. By continuing to use the site, you agree to this use of cookies and data.
  • In France
  • List of Countries
  • For 7 days
  • Water Temperature
  • Weather Map
  • Weather Widgets
  • user-avatar
    Login

    Hourly Weather Xiahu

    Today, 19 September, Thursday

    Time Temperature Precipitation Wind Pressure Humidity
    00:00 +27°C° 0 mm 7 mps 758 mmHg 59%
    01:00 +26°C° 0 mm 7 mps 758 mmHg 59%
    02:00 +26°C° 0 mm 7 mps 757 mmHg 59%
    03:00 +24°C° 0 mm 6 mps 757 mmHg 62%
    04:00 +23°C° 0 mm 6 mps 757 mmHg 65%
    05:00 +23°C° 0 mm 6 mps 757 mmHg 68%
    06:00 +23°C° 0 mm 6 mps 758 mmHg 66%
    07:00 +25°C° 0 mm 5 mps 758 mmHg 65%
    08:00 +25°C° 0 mm 5 mps 758 mmHg 65%
    09:00 +26°C° 0 mm 5 mps 758 mmHg 61%
    10:00 +27°C° 0 mm 5 mps 758 mmHg 57%
    11:00 +28°C° 0 mm 5 mps 758 mmHg 52%
    12:00 +28°C° 0 mm 6 mps 757 mmHg 53%
    13:00 +29°C° 0 mm 6 mps 756 mmHg 53%
    14:00 +29°C° 0 mm 6 mps 756 mmHg 54%
    15:00 +29°C° 0 mm 7 mps 756 mmHg 58%
    16:00 +28°C° 0 mm 7 mps 756 mmHg 63%
    17:00 +27°C° 0 mm 8 mps 755 mmHg 68%
    18:00 +27°C° 0 mm 8 mps 756 mmHg 68%
    19:00 +27°C° 0 mm 8 mps 756 mmHg 69%
    20:00 +27°C° 0 mm 8 mps 757 mmHg 69%
    21:00 +26°C° 0 mm 7 mps 757 mmHg 71%
    22:00 +26°C° 0 mm 7 mps 757 mmHg 72%
    23:00 +24°C° 0 mm 6 mps 757 mmHg 74%

    Tomorrow, 20 September, Friday

    Time Temperature Precipitation Wind Pressure Humidity
    00:00 +23°C° 0 mm 6 mps 756 mmHg 74%
    01:00 +23°C° 0 mm 6 mps 756 mmHg 74%
    02:00 +22°C° 0 mm 6 mps 755 mmHg 73%
    03:00 +22°C° 0 mm 6 mps 755 mmHg 74%
    04:00 +21°C° 0 mm 5 mps 755 mmHg 74%
    05:00 +21°C° 0 mm 5 mps 755 mmHg 74%
    06:00 +21°C° 0 mm 5 mps 755 mmHg 71%
    07:00 +22°C° 0 mm 5 mps 755 mmHg 69%
    08:00 +23°C° 0 mm 4 mps 756 mmHg 66%
    09:00 +25°C° 0 mm 4 mps 755 mmHg 59%
    10:00 +26°C° 0 mm 4 mps 755 mmHg 53%
    11:00 +28°C° 0 mm 3 mps 755 mmHg 46%
    12:00 +28°C° 0 mm 3 mps 754 mmHg 46%
    13:00 +29°C° 0 mm 3 mps 753 mmHg 46%
    14:00 +29°C° 0 mm 3 mps 753 mmHg 45%
    15:00 +29°C° 0 mm 4 mps 753 mmHg 51%
    16:00 +29°C° 0 mm 5 mps 753 mmHg 56%
    17:00 +28°C° 0 mm 6 mps 753 mmHg 61%
    18:00 +28°C° 0 mm 6 mps 753 mmHg 58%
    19:00 +27°C° 0 mm 7 mps 753 mmHg 55%
    20:00 +27°C° 0 mm 7 mps 753 mmHg 52%
    21:00 +26°C° 0 mm 7 mps 753 mmHg 56%
    22:00 +24°C° 0 mm 7 mps 753 mmHg 60%
    23:00 +23°C° 0 mm 6 mps 753 mmHg 64%

    Day after tomorrow, 21 September, Saturday

    Time Temperature Precipitation Wind Pressure Humidity
    00:00 +23°C° 0 mm 6 mps 753 mmHg 64%
    01:00 +22°C° 0 mm 5 mps 752 mmHg 64%
    02:00 +22°C° 0 mm 5 mps 752 mmHg 65%
    03:00 +22°C° 0 mm 5 mps 752 mmHg 65%
    04:00 +22°C° 0 mm 5 mps 751 mmHg 66%
    05:00 +21°C° 0 mm 6 mps 751 mmHg 67%
    06:00 +22°C° 0 mm 6 mps 751 mmHg 65%
    07:00 +22°C° 0 mm 6 mps 751 mmHg 64%
    08:00 +23°C° 0 mm 7 mps 752 mmHg 62%
    09:00 +26°C° 0 mm 6 mps 751 mmHg 57%
    10:00 +27°C° 0 mm 6 mps 751 mmHg 51%
    11:00 +29°C° 0 mm 6 mps 751 mmHg 46%
    12:00 +30°C° 0 mm 5 mps 750 mmHg 48%
    13:00 +30°C° 0 mm 5 mps 750 mmHg 50%
    14:00 +32°C° 0 mm 5 mps 750 mmHg 52%
    15:00 +30°C° 0 mm 5 mps 750 mmHg 56%
    16:00 +29°C° 0 mm 6 mps 750 mmHg 61%
    17:00 +29°C° 0 mm 6 mps 750 mmHg 65%
    18:00 +28°C° 0 mm 7 mps 751 mmHg 62%
    19:00 +28°C° 0 mm 7 mps 751 mmHg 59%
    20:00 +27°C° 0 mm 7 mps 752 mmHg 57%
    21:00 +27°C° 0 mm 6 mps 752 mmHg 57%
    22:00 +26°C° 0 mm 5 mps 752 mmHg 58%
    23:00 +26°C° 0 mm 5 mps 753 mmHg 59%

    22 September, Sunday

    Time Temperature Precipitation Wind Pressure Humidity
    00:00 +25°C° 0 mm 5 mps 752 mmHg 61%
    01:00 +25°C° 0 mm 5 mps 752 mmHg 62%
    02:00 +25°C° 0 mm 5 mps 752 mmHg 64%
    03:00 +25°C° 0 mm 5 mps 752 mmHg 64%
    04:00 +25°C° 0 mm 5 mps 753 mmHg 64%
    05:00 +23°C° 0 mm 5 mps 753 mmHg 65%
    06:00 +23°C° 0 mm 5 mps 753 mmHg 65%
    07:00 +25°C° 0 mm 4 mps 754 mmHg 66%
    08:00 +25°C° 0 mm 4 mps 755 mmHg 67%
    09:00 +25°C° 0 mm 4 mps 755 mmHg 66%
    10:00 +26°C° 0 mm 4 mps 756 mmHg 65%
    11:00 +26°C° 0 mm 4 mps 756 mmHg 64%
    12:00 +26°C° 0 mm 4 mps 756 mmHg 64%
    13:00 +26°C° 0 mm 3 mps 756 mmHg 63%
    14:00 +27°C° 0 mm 3 mps 755 mmHg 62%
    15:00 +27°C° 0 mm 2 mps 756 mmHg 62%
    16:00 +27°C° 0 mm 2 mps 756 mmHg 63%
    17:00 +27°C° 0 mm 1 mps 756 mmHg 63%
    18:00 +27°C° 0 mm 2 mps 756 mmHg 63%
    19:00 +27°C° 0 mm 2 mps 757 mmHg 64%
    20:00 +27°C° 0 mm 3 mps 757 mmHg 64%
    21:00 +27°C° 0 mm 3 mps 758 mmHg 64%
    22:00 +27°C° 0 mm 4 mps 758 mmHg 64%
    23:00 +26°C° 0 mm 5 mps 758 mmHg 64%

    23 September, Monday

    Time Temperature Precipitation Wind Pressure Humidity
    00:00 +26°C° 0 mm 5 mps 758 mmHg 68%
    01:00 +25°C° 0 mm 4 mps 758 mmHg 72%
    02:00 +23°C° 0 mm 4 mps 758 mmHg 75%
    03:00 +23°C° 0 mm 4 mps 758 mmHg 75%
    04:00 +23°C° 0 mm 4 mps 759 mmHg 75%
    05:00 +22°C° 0 mm 4 mps 759 mmHg 74%
    06:00 +23°C° 0 mm 4 mps 759 mmHg 72%
    07:00 +24°C° 0 mm 3 mps 760 mmHg 69%
    08:00 +24°C° 0 mm 3 mps 761 mmHg 66%
    09:00 +25°C° 0 mm 2 mps 760 mmHg 62%
    10:00 +26°C° 0 mm 2 mps 760 mmHg 57%
    11:00 +28°C° 0 mm 2 mps 760 mmHg 52%
    12:00 +28°C° 0 mm 3 mps 760 mmHg 52%
    13:00 +28°C° 0 mm 4 mps 760 mmHg 53%
    14:00 +28°C° 0 mm 4 mps 759 mmHg 53%
    15:00 +27°C° 0 mm 5 mps 759 mmHg 56%
    16:00 +27°C° 0 mm 5 mps 759 mmHg 59%
    17:00 +26°C° 0 mm 5 mps 759 mmHg 62%
    18:00 +26°C° 0 mm 4 mps 760 mmHg 64%
    19:00 +25°C° 0 mm 4 mps 760 mmHg 65%
    20:00 +25°C° 0 mm 3 mps 761 mmHg 67%
    21:00 +25°C° 0 mm 3 mps 761 mmHg 69%
    22:00 +25°C° 0 mm 3 mps 761 mmHg 71%
    23:00 +24°C° 0 mm 3 mps 761 mmHg 72%

    24 September, Tuesday

    Time Temperature Precipitation Wind Pressure Humidity
    00:00 +24°C° 0.1 mm 3 mps 761 mmHg 75%
    01:00 +23°C° 0.1 mm 4 mps 761 mmHg 77%
    02:00 +22°C° 0.1 mm 4 mps 761 mmHg 79%
    03:00 +22°C° 0.1 mm 4 mps 761 mmHg 81%
    04:00 +22°C° 0.1 mm 4 mps 761 mmHg 82%
    05:00 +21°C° 0.1 mm 4 mps 761 mmHg 83%
    06:00 +22°C° 0 mm 3 mps 761 mmHg 80%
    07:00 +22°C° 0 mm 3 mps 762 mmHg 77%
    08:00 +24°C° 0 mm 3 mps 762 mmHg 74%
    09:00 +25°C° 0 mm 3 mps 762 mmHg 67%
    10:00 +26°C° 0 mm 3 mps 762 mmHg 60%
    11:00 +27°C° 0 mm 3 mps 762 mmHg 53%
    12:00 +27°C° 0 mm 3 mps 761 mmHg 55%
    13:00 +27°C° 0 mm 4 mps 761 mmHg 57%
    14:00 +27°C° 0 mm 5 mps 760 mmHg 58%
    15:00 +27°C° 0 mm 5 mps 760 mmHg 62%
    16:00 +26°C° 0 mm 5 mps 760 mmHg 66%
    17:00 +26°C° 0 mm 5 mps 760 mmHg 69%
    18:00 +26°C° 0 mm 5 mps 760 mmHg 71%
    19:00 +25°C° 0 mm 5 mps 761 mmHg 73%
    20:00 +25°C° 0 mm 5 mps 761 mmHg 75%
    21:00 +25°C° 0 mm 5 mps 762 mmHg 76%
    22:00 +25°C° 0 mm 5 mps 762 mmHg 77%
    23:00 +25°C° 0 mm 5 mps 762 mmHg 78%
    Show more